Wind_Speed
16 14 13 11 9 9 11 14 17 19 19 20 21 21 21 20 20 19 18 12 15 13 13 14 16 20 24 28 29 25 20 23 18 15 21 25 25 21 20 19 18 19 16 11 13
17 14 14 13 10 10 10 12 16 18 19 19 20 21 20 20 19 19 15 15 16 16 13 12 16 19 25 27 30 27 23 17 18 16 24 25 20 23 23 21 20 18 17 14 16
16 15 14 13 12 10 11 11 14 16 18 18 19 20 20 19 19 17 17 18 19 16 14 13 15 18 25 29 30 26 16 10 12 16 20 20 18 21 21 21 22 21 18 16 15
15 16 14 12 12 11 11 10 13 15 17 18 18 19 19 19 14 18 20 19 21 20 18 20 21 22 27 32 30 25 16 14 22 19 22 21 19 23 21 20 22 20 19 17 16
16 15 14 13 11 11 11 10 11 14 16 17 18 19 19 20 20 11 21 21 22 22 22 21 22 24 26 29 28 28 16 15 18 19 19 21 21 21 21 18 21 20 18 17 16
17 16 14 14 15 15 12 10 11 13 15 17 17 18 19 18 21 16 14 19 20 21 22 22 22 20 23 23 29 31 17 15 15 21 21 21 23 20 22 20 20 20 20 19 19
17 16 16 16 15 15 14 11 10 12 14 16 16 17 18 15 17 19 13 15 17 19 20 20 21 21 21 23 25 24 18 18 18 17 22 15 18 20 20 22 21 22 22 22 22
19 16 16 16 12 15 16 12 10 12 14 16 17 17 15 18 18 18 21 18 17 18 20 20 24 20 21 15 24 21 20 21 19 17 20 20 19 20 20 21 21 22 22 22 22
18 17 15 16 14 13 16 13 10 12 15 17 18 18 17 21 19 19 17 18 20 20 24 29 27 26 25 19 23 23 20 23 20 21 19 23 21 22 22 22 21 21 21 20 19
15 17 16 15 16 17 13 14 11 11 14 18 19 16 13 18 17 20 16 19 22 25 29 31 30 32 28 26 32 33 25 25 22 29 25 23 25 19 23 21 20 20 20 20 18
14 15 15 16 14 17 17 10 13 13 13 15 9 19 8 14 19 19 19 19 22 28 35 36 35 41 37 33 20 26 24 21 24 28 27 25 24 21 18 19 19 20 20 19 17
13 12 13 16 16 18 20 15 13 11 12 18 19 16 17 12 17 21 23 23 26 28 30 33 40 32 31 27 22 19 20 13 26 28 28 26 24 21 20 19 20 21 21 19 18
12 12 11 14 17 16 16 19 14 13 10 13 18 19 13 15 14 21 26 27 26 29 32 32 21 27 28 30 30 30 17 16 30 34 27 26 21 22 23 22 21 22 22 20 19
13 11 10 12 17 17 17 21 18 14 8 12 19 21 23 18 17 19 24 27 26 29 29 28 19 14 27 30 28 27 19 19 27 34 13 26 8 25 25 23 22 22 22 22 21
15 11 9 10 13 17 18 22 19 16 3 8 20 16 21 25 15 22 23 29 24 27 31 22 24 23 22 29 27 17 17 22 11 29 19 30 5 9 26 29 26 24 23 22 20
14 9 6 8 13 17 16 20 21 11 7 10 15 22 25 28 22 20 27 30 21 19 24 25 14 22 17 28 25 15 17 13 17 27 9 22 25 13 23 30 30 27 22 20 19
15 7 4 7 9 15 18 18 15 8 7 9 15 19 25 30 28 19 31 36 23 22 23 27 21 21 23 23 23 26 21 6 5 6 4 21 22 18 18 20 22 22 20 17 16
10 7 2 8 13 16 13 24 7 4 11 6 14 19 25 26 26 24 29 38 33 25 21 23 13 24 21 26 28 29 32 11 7 5 5 12 10 11 22 24 24 19 18 17 17
10 7 1 9 14 12 18 21 8 4 11 10 9 20 21 23 17 23 28 37 36 28 14 23 19 20 21 23 25 30 34 20 4 3 5 8 8 9 21 26 27 22 19 17 16
8 8 4 3 15 19 23 15 19 5 6 14 12 12 22 25 22 21 24 27 36 36 29 10 9 18 29 25 28 23 31 16 12 6 5 5 7 12 26 26 27 24 19 18 17
8 7 6 4 11 19 25 17 22 24 11 10 11 15 12 22 24 26 13 19 34 34 36 25 16 10 23 24 28 26 23 21 15 10 5 4 5 15 16 18 18 19 19 18 17
8 5 6 5 10 17 20 17 19 16 26 24 12 13 16 21 26 25 25 22 20 33 30 35 18 11 23 22 26 30 26 30 17 8 12 4 5 8 12 17 19 19 19 18 16
7 6 7 6 6 11 15 17 16 17 16 22 25 18 23 19 21 30 25 28 24 25 24 31 15 8 6 16 21 25 32 28 27 17 14 5 6 19 17 20 20 19 18 17 15
9 4 6 8 13 11 10 15 17 19 19 21 25 24 21 23 22 17 30 27 29 24 27 25 24 19 13 10 19 22 26 28 26 20 17 14 10 18 21 22 19 16 16 16 15
11 5 6 8 11 14 19 19 12 15 17 20 23 25 24 23 29 26 24 28 29 27 27 24 18 19 12 11 16 20 24 24 22 19 12 15 11 12 16 16 16 16 15 15 16
12 11 8 10 13 15 18 22 23 22 23 24 24 22 25 26 21 22 28 27 22 26 29 28 15 19 15 11 9 13 16 18 18 18 16 10 10 12 14 14 14 13 14 14 14
15 14 12 12 12 13 16 20 21 20 22 25 24 20 23 24 24 19 12 21 21 21 28 25 24 17 10 12 10 7 15 16 16 14 14 12 11 12 12 12 11 11 11 13 16
Wind_Direction
272 271 271 276 282 277 256 244 236 233 230 230 230 230 229 228 227 227 230 216 213 211 212 201 198 198 190 187 185 185 186 199 190 183 164 171 191 168 177 188 172 177 187 199 178
267 266 266 269 271 278 273 249 237 234 230 226 228 229 227 226 227 225 211 210 210 211 206 202 200 195 194 187 190 188 194 198 192 198 184 179 188 187 181 188 183 192 191 181 171
266 264 261 263 263 266 271 262 240 232 230 227 225 224 224 221 224 217 209 209 209 203 192 181 192 196 194 190 191 190 190 199 218 203 199 191 184 187 179 183 186 188 190 189 194
271 264 261 261 263 265 268 263 238 229 227 224 221 221 219 216 216 215 209 207 209 202 200 187 187 191 194 190 187 175 161 154 159 171 185 190 189 182 175 191 188 185 191 197 209
270 265 258 264 276 269 269 270 241 222 222 221 217 217 217 215 207 203 210 208 210 207 205 202 192 189 189 191 184 172 177 171 171 177 176 190 187 197 181 191 190 192 199 205 211
267 264 258 245 226 289 271 265 251 222 218 217 216 216 217 214 212 210 206 211 210 211 204 202 198 183 188 180 185 182 201 191 182 197 198 200 187 184 192 193 196 202 208 216 226
272 263 256 253 228 247 280 259 248 228 218 217 216 216 219 211 214 211 192 191 202 207 210 200 190 180 175 174 177 167 184 188 193 204 205 192 198 190 193 198 203 212 220 227 234
270 265 259 250 229 207 279 259 242 229 218 217 218 219 221 219 218 215 214 202 196 196 196 195 184 169 180 176 172 178 203 189 192 208 219 206 206 203 200 204 210 219 227 230 234
275 263 259 253 231 211 255 267 245 226 218 215 217 218 215 217 218 214 209 207 207 203 189 189 187 183 176 175 184 192 197 197 190 208 223 209 219 216 215 213 216 221 226 228 230
282 268 253 253 242 220 203 262 246 234 223 219 218 215 221 221 215 209 206 198 205 202 186 191 192 194 191 188 191 193 198 200 199 203 209 222 225 223 219 218 222 225 226 226 225
291 277 259 243 238 237 212 232 246 230 239 234 225 219 208 209 208 202 206 195 195 196 188 191 197 202 198 195 209 206 194 196 203 209 210 213 224 225 223 222 222 223 225 225 225
296 282 268 239 234 228 206 209 250 242 222 225 236 226 213 194 207 199 198 193 192 194 195 198 210 209 205 203 195 171 188 210 189 197 197 203 210 217 221 224 222 222 223 224 227
309 290 270 245 230 225 219 215 200 225 230 233 228 232 235 220 213 210 199 199 202 197 199 206 220 213 211 212 213 210 228 227 200 189 194 210 208 216 218 223 222 222 225 227 231
313 297 276 249 229 217 215 210 203 216 242 240 229 224 217 216 217 208 206 201 198 205 205 216 205 202 213 212 211 221 222 228 206 186 184 194 208 223 222 225 224 223 226 231 235
315 301 279 244 220 220 204 206 201 198 264 221 214 215 208 213 218 206 199 204 209 202 202 211 215 220 217 210 204 214 211 202 212 196 198 197 222 228 223 224 224 224 228 233 239
325 307 271 230 207 208 203 203 189 198 252 205 199 201 197 204 206 204 193 204 204 200 216 216 215 212 217 208 204 208 194 188 204 198 228 219 208 240 219 226 224 225 230 235 238
337 334 257 195 197 196 190 189 174 209 213 219 203 202 203 202 202 204 198 196 196 193 206 214 219 210 210 207 205 207 185 138 178 210 220 216 212 248 226 222 219 224 226 228 228
330 346 283 180 184 206 192 175 200 219 213 226 219 206 199 204 209 210 204 201 204 204 195 197 208 211 213 211 209 206 195 180 186 185 168 174 214 230 225 220 222 219 219 224 227
330 327 336 191 181 189 181 196 216 234 207 196 196 194 197 205 210 205 209 208 207 205 204 204 210 213 211 211 206 209 211 217 141 159 148 187 207 215 215 216 219 219 219 220 223
324 311 307 227 198 189 192 209 206 215 196 184 192 199 200 202 203 203 207 218 215 211 209 209 201 208 207 209 213 216 214 210 208 172 214 219 232 220 215 217 216 215 217 217 219
315 296 285 252 205 198 206 216 227 224 224 207 203 207 218 210 210 206 210 219 215 218 215 219 219 202 202 207 210 210 211 212 210 216 191 164 223 222 214 216 208 209 212 210 210
320 294 290 254 206 199 221 232 236 236 243 232 262 221 214 208 212 217 216 221 217 217 217 218 218 191 202 212 213 214 214 213 215 211 217 228 211 199 199 191 195 203 210 212 212
337 307 279 251 241 245 234 235 246 248 241 234 238 261 257 216 215 217 223 215 220 213 212 210 205 159 199 226 218 214 215 217 219 227 220 195 215 208 193 188 187 191 201 208 222
344 311 292 261 237 252 255 258 261 258 255 242 242 244 260 246 234 223 216 217 215 216 210 208 209 213 210 206 203 210 215 215 217 226 223 228 221 201 204 198 199 207 211 225 243
354 325 290 272 263 251 253 253 247 272 263 253 249 245 244 250 241 239 235 210 205 208 205 202 205 207 196 199 199 207 208 211 215 225 222 243 238 212 205 204 205 212 219 244 263
332 329 316 291 271 263 259 261 261 261 262 267 248 248 241 236 247 265 250 224 208 203 206 198 181 189 185 183 188 195 198 208 215 216 222 211 207 191 196 196 202 220 241 254 267
307 304 305 300 293 281 267 263 265 263 259 253 256 253 249 245 247 258 252 225 222 217 206 203 211 186 174 177 179 208 197 198 203 205 212 213 223 205 197 206 217 234 255 273 284
Height
3063 3062 3062 3061 3059 3059 3058 3059 3061 3063 3065 3066 3068 3071 3073 3075 3079 3080 3086 3089 3088 3092 3092 3094 3094 3098 3102 3103 3109 3112 3111 3114 3116 3118 3121 3123 3126 3129 3132 3134 3135 3137 3141 3142 3145
3058 3057 3058 3058 3056 3056 3056 3056 3057 3059 3061 3062 3064 3067 3070 3073 3075 3079 3085 3084 3085 3089 3090 3091 3093 3095 3100 3102 3106 3110 3111 3114 3115 3116 3119 3122 3125 3127 3131 3132 3134 3138 3139 3140 3143
3054 3053 3054 3054 3054 3053 3053 3053 3054 3055 3057 3058 3060 3063 3067 3069 3073 3077 3079 3080 3083 3087 3088 3090 3091 3095 3098 3100 3105 3109 3112 3114 3114 3115 3119 3121 3123 3125 3128 3131 3133 3135 3137 3139 3141
3049 3049 3049 3050 3050 3050 3050 3050 3050 3051 3053 3055 3057 3060 3063 3067 3072 3072 3074 3077 3080 3083 3085 3086 3088 3092 3095 3097 3104 3108 3112 3113 3113 3114 3117 3119 3121 3123 3127 3130 3132 3134 3136 3138 3140
3045 3046 3045 3046 3047 3047 3048 3047 3048 3048 3050 3053 3054 3057 3060 3064 3067 3068 3071 3074 3076 3079 3082 3084 3086 3091 3092 3097 3102 3106 3108 3111 3114 3116 3118 3118 3120 3124 3125 3128 3130 3132 3134 3136 3138
3042 3042 3042 3041 3041 3045 3044 3044 3045 3045 3048 3050 3052 3054 3058 3061 3064 3067 3068 3071 3074 3077 3080 3082 3085 3090 3093 3096 3100 3106 3106 3109 3113 3116 3117 3118 3119 3122 3124 3127 3129 3130 3132 3133 3134
3038 3037 3038 3038 3039 3041 3043 3042 3042 3042 3044 3047 3049 3051 3054 3059 3061 3064 3066 3069 3072 3076 3078 3082 3086 3089 3092 3094 3099 3104 3103 3107 3110 3115 3116 3118 3119 3119 3122 3124 3126 3128 3129 3130 3131
3033 3033 3034 3035 3035 3035 3041 3040 3040 3040 3042 3044 3046 3049 3052 3054 3057 3061 3064 3067 3070 3073 3077 3082 3085 3087 3090 3093 3096 3099 3102 3103 3107 3111 3111 3115 3116 3117 3119 3121 3123 3125 3126 3127 3128
3028 3029 3030 3031 3033 3033 3038 3039 3038 3039 3040 3042 3045 3046 3049 3051 3055 3057 3060 3063 3067 3070 3074 3078 3082 3084 3087 3090 3093 3094 3095 3099 3105 3106 3108 3111 3111 3114 3115 3117 3119 3121 3122 3123 3124
3024 3025 3026 3027 3028 3031 3030 3036 3037 3037 3038 3040 3042 3047 3046 3049 3052 3054 3057 3060 3063 3066 3071 3075 3078 3080 3082 3085 3083 3086 3091 3096 3099 3101 3104 3106 3107 3109 3111 3113 3115 3117 3119 3120 3121
3020 3020 3021 3023 3024 3026 3031 3032 3037 3037 3036 3039 3040 3041 3043 3045 3048 3050 3054 3057 3060 3064 3065 3070 3072 3070 3075 3081 3085 3088 3092 3094 3096 3098 3101 3103 3105 3106 3108 3109 3112 3114 3115 3116 3118
3017 3017 3018 3019 3021 3024 3027 3029 3032 3034 3034 3035 3037 3038 3040 3042 3045 3047 3051 3055 3057 3060 3064 3069 3064 3072 3079 3082 3085 3085 3088 3089 3092 3094 3098 3099 3101 3102 3104 3106 3108 3110 3111 3113 3114
3015 3014 3013 3015 3017 3020 3023 3027 3028 3031 3032 3032 3034 3035 3039 3041 3042 3044 3048 3050 3055 3057 3059 3062 3067 3072 3074 3078 3080 3081 3083 3084 3085 3088 3094 3096 3099 3098 3099 3101 3103 3106 3108 3110 3110
3013 3011 3010 3011 3015 3016 3020 3022 3025 3029 3030 3029 3029 3030 3034 3037 3039 3041 3045 3050 3051 3054 3059 3062 3066 3066 3069 3072 3076 3078 3082 3081 3083 3086 3090 3094 3096 3094 3095 3097 3099 3102 3104 3105 3106
3010 3007 3007 3007 3010 3012 3017 3018 3023 3027 3028 3024 3023 3026 3028 3033 3036 3036 3041 3045 3048 3050 3056 3057 3059 3063 3064 3066 3072 3076 3078 3080 3083 3085 3087 3090 3092 3086 3089 3090 3094 3096 3098 3099 3101
3008 3005 3004 3005 3006 3008 3013 3017 3022 3030 3023 3018 3017 3019 3023 3026 3031 3034 3037 3042 3047 3050 3052 3055 3057 3060 3061 3063 3070 3074 3077 3080 3082 3084 3083 3080 3085 3080 3081 3083 3087 3091 3093 3095 3096
3006 3003 3003 3003 3006 3008 3011 3016 3023 3019 3018 3016 3015 3015 3019 3021 3026 3030 3032 3036 3041 3045 3047 3050 3053 3054 3056 3061 3065 3068 3071 3078 3084 3082 3075 3077 3081 3075 3076 3080 3083 3086 3089 3091 3093
3006 3003 3002 3003 3004 3006 3012 3015 3014 3012 3013 3012 3013 3015 3017 3019 3024 3027 3029 3032 3037 3040 3042 3044 3051 3050 3051 3054 3057 3060 3063 3062 3066 3070 3070 3073 3070 3067 3073 3075 3077 3081 3084 3087 3088
3005 3004 3002 3003 3004 3005 3008 3012 3010 3009 3009 3010 3011 3013 3015 3017 3020 3023 3025 3028 3032 3035 3039 3039 3042 3042 3046 3050 3055 3055 3055 3060 3060 3062 3064 3066 3066 3066 3066 3068 3072 3076 3079 3082 3084
3004 3004 3002 3002 3003 3005 3007 3006 3006 3008 3008 3008 3009 3011 3011 3013 3016 3019 3022 3023 3026 3030 3033 3035 3038 3039 3041 3046 3049 3049 3054 3056 3056 3060 3061 3061 3059 3055 3058 3062 3066 3071 3075 3078 3080
3003 3003 3002 3001 3002 3004 3003 3004 3004 3005 3007 3007 3007 3008 3009 3010 3012 3014 3015 3016 3019 3023 3028 3031 3033 3036 3038 3039 3041 3044 3045 3048 3050 3050 3048 3054 3053 3051 3055 3060 3065 3068 3071 3074 3076
3000 3001 3000 3000 3002 3001 3001 3002 3003 3003 3004 3005 3003 3005 3006 3007 3008 3009 3009 3012 3013 3017 3022 3026 3028 3030 3032 3033 3034 3037 3039 3041 3042 3043 3043 3043 3049 3050 3053 3057 3062 3065 3068 3070 3073
2999 2998 2998 2998 2999 2999 2998 2999 3000 3000 3001 3002 3002 3002 3001 3002 3004 3003 3005 3006 3010 3012 3015 3019 3022 3027 3031 3033 3030 3030 3033 3035 3036 3038 3038 3041 3044 3047 3050 3053 3057 3062 3065 3067 3069
2999 2997 2996 2996 2996 2997 2997 2996 2995 2995 2996 2997 2997 2997 2997 2996 2997 2997 2999 3002 3003 3007 3010 3013 3015 3017 3018 3018 3022 3025 3027 3030 3033 3035 3034 3035 3036 3041 3045 3050 3054 3058 3061 3063 3064
2998 2996 2994 2993 2992 2992 2993 2992 2991 2991 2991 2991 2990 2991 2992 2993 2992 2992 2994 2995 2997 2999 3003 3008 3009 3013 3014 3016 3018 3019 3022 3025 3028 3030 3032 3033 3035 3038 3042 3047 3051 3054 3057 3058 3060
2997 2995 2991 2989 2988 2987 2987 2986 2986 2986 2987 2986 2985 2986 2986 2987 2988 2987 2987 2989 2989 2992 2996 2998 3003 3007 3010 3013 3017 3018 3019 3022 3024 3026 3028 3030 3033 3036 3039 3043 3047 3051 3052 3053 3054
2993 2991 2989 2986 2984 2983 2981 2980 2979 2980 2980 2979 2980 2980 2980 2982 2982 2983 2983 2984 2985 2988 2989 2995 2999 3004 3009 3012 3015 3019 3018 3019 3021 3023 3026 3028 3031 3035 3038 3041 3044 3047 3048 3048 3048